Stations météo

réclame
Mon MeteoGroup
Inverbervie, Grande-Bretagne (3088): Température de l'air & dewpoint: 19.01.2020 03:00:00 - 25.01.2020 03:00:00 (GMT)Inverbervie, Grande-Bretagne (3088): Température de l'air -20cm & Température de l'air -100cm: 19.01.2020 03:00:00 - 25.01.2020 03:00:00 (GMT)Inverbervie, Grande-Bretagne (3088): Vitesse du vent & gusts: 19.01.2020 03:00:00 - 25.01.2020 03:00:00 (GMT)Inverbervie, Grande-Bretagne (3088): Direction du vent: 19.01.2020 03:00:00 - 25.01.2020 03:00:00 (GMT)Inverbervie, Grande-Bretagne (3088): reduced air pressure: 19.01.2020 03:00:00 - 25.01.2020 03:00:00 (GMT)Inverbervie, Grande-Bretagne (3088): visibility: 19.01.2020 03:00:00 - 25.01.2020 03:00:00 (GMT)Inverbervie, Grande-Bretagne (3088): Quantités de précipitations: 19.01.2020 03:00:00 - 25.01.2020 03:00:00 (GMT)
Date & Time tt [°C] td [°C] tt -20cm [°C] tt -100cm [°C] ff [km/h] ff [knt] fx [km/h] fx [knt] dd ppp [hPa] vv [km] rr [mm]
25.01.2020 03:00:00 6,5 6,0 - - 29 16 - - SW 1011,1 13 0,0
25.01.2020 02:00:00 6,5 5,9 - - 35 19 - - SW 1011,9 14 0,0
25.01.2020 01:00:00 6,5 5,7 - - 29 16 - - WSW 1012,8 25 0,2
25.01.2020 00:00:00 6,6 5,8 - - 21 11 - - W 1013,9 29 0,0
24.01.2020 23:00:00 5,8 5,1 - - 18 10 - - WSW 1014,3 20 0,0
24.01.2020 22:00:00 5,7 4,7 - - 15 8 - - WSW 1015,2 29 0,0
24.01.2020 21:00:00 5,9 4,5 - - 29 16 - - WSW 1015,2 45 0,0
24.01.2020 20:00:00 5,1 3,5 - - 18 10 - - WSW 1016,0 40 0,0
24.01.2020 19:00:00 5,4 3,5 - - 9 5 - - SSW 1016,3 35 0,2
24.01.2020 18:00:00 6,2 4,2 - - 5 3 - - SSW 1016,4 26 0,0
24.01.2020 17:00:00 5,8 5,0 - - 5 3 - - ENE 1016,5 13 0,0
24.01.2020 16:00:00 6,1 4,0 - - 4 2 - - NNW 1016,4 45 0,0
24.01.2020 15:00:00 6,2 5,0 - - 5 3 - - ENE 1016,6 29 0,0
24.01.2020 14:00:00 6,3 5,2 - - 4 2 - - ESE 1016,6 40 0,0
24.01.2020 13:00:00 7,3 5,4 - - 5 3 - - WSW 1017,1 50 0,0
24.01.2020 12:00:00 7,0 5,8 - - 5 3 - - NNW 1017,5 45 0,0
24.01.2020 11:00:00 6,5 5,8 - - 5 3 - - N 1017,9 40 0,0
24.01.2020 10:00:00 6,1 5,7 - - 9 5 - - W 1017,6 45 0,0
24.01.2020 09:00:00 5,8 5,5 5,0 5,7 9 5 - - NW 1017,5 20 0,0
24.01.2020 08:00:00 5,8 5,4 - - 13 7 - - NW 1017,3 21 0,0
24.01.2020 07:00:00 6,1 5,6 - - 18 10 - - W 1017,0 50 0,0
24.01.2020 06:00:00 5,8 5,2 - - 18 10 - - W 1016,9 45 0,0
24.01.2020 05:00:00 6,3 5,6 - - 21 11 - - W 1017,0 50 0,0
24.01.2020 04:00:00 6,3 5,5 - - 15 8 - - W 1017,1 50 0,0
24.01.2020 03:00:00 6,2 5,6 - - 22 12 - - SW 1017,4 30 0,0
24.01.2020 02:00:00 6,4 5,6 - - 34 18 48 26 SW 1017,6 50 0,0
24.01.2020 01:00:00 6,3 5,6 - - 39 21 46 25 SW 1018,4 45 0,0
24.01.2020 00:00:00 6,2 5,5 - - 35 19 - - SW 1018,9 50 0,0
23.01.2020 23:00:00 6,1 5,6 - - 31 17 - - SW 1019,7 22 0,0
23.01.2020 22:00:00 5,8 5,4 - - 31 17 - - SW 1020,1 16 0,0
23.01.2020 21:00:00 5,8 5,0 - - 18 10 - - SSW 1020,9 45 0,0
23.01.2020 20:00:00 5,8 4,7 - - 18 10 - - SW 1021,3 45 0,0
23.01.2020 19:00:00 6,4 4,7 - - 22 12 - - W 1021,5 50 0,0
23.01.2020 18:00:00 6,9 4,6 - - 24 13 - - SW 1021,6 50 0,0
23.01.2020 17:00:00 7,2 4,6 - - 31 17 - - WSW 1021,8 50 0,0
23.01.2020 16:00:00 7,9 4,7 - - 29 16 46 25 W 1022,0 50 0,0
23.01.2020 15:00:00 8,7 4,7 - - 26 14 48 26 W 1022,6 50 0,0
23.01.2020 14:00:00 9,2 4,8 - - 31 17 50 27 W 1023,1 35 0,0
23.01.2020 13:00:00 9,0 4,6 - - 18 10 - - W 1024,7 40 0,0
23.01.2020 12:00:00 8,1 5,1 - - 16 9 - - WNW 1025,5 45 0,0
23.01.2020 11:00:00 6,7 4,5 - - 16 9 - - WNW 1026,3 45 0,0
23.01.2020 10:00:00 5,0 3,3 - - 16 9 - - WNW 1026,5 40 0,0
23.01.2020 09:00:00 4,1 2,9 5,0 5,7 15 8 - - WNW 1026,6 40 0,0
23.01.2020 08:00:00 4,8 3,4 - - 16 9 - - WNW 1026,9 50 0,0
23.01.2020 07:00:00 5,4 4,3 - - 18 10 - - W 1026,7 50 0,0
23.01.2020 06:00:00 5,7 4,8 - - 11 6 - - WSW 1027,3 50 0,0
23.01.2020 05:00:00 5,6 4,9 - - 13 7 - - WSW 1027,6 35 0,0
23.01.2020 04:00:00 5,6 5,1 - - 15 8 - - WSW 1028,7 30 0,0
23.01.2020 03:00:00 6,2 5,9 - - 13 7 - - W 1030,2 5 0,0
23.01.2020 02:00:00 6,0 5,5 - - 22 12 - - W 1030,8 15 0,0
23.01.2020 01:00:00 7,3 6,1 - - 28 15 - - WSW 1031,1 50 0,0
23.01.2020 00:00:00 8,3 6,3 - - 16 9 - - WSW 1031,8 50 0,0
22.01.2020 23:00:00 8,9 7,5 - - 8 4 - - W 1032,3 35 0,0
22.01.2020 22:00:00 8,5 7,4 - - 8 4 - - W 1032,8 40 0,0
22.01.2020 21:00:00 9,5 7,7 - - 9 5 - - E 1032,8 35 0,0
22.01.2020 20:00:00 10,7 8,3 - - 13 7 - - N 1033,4 50 0,0
22.01.2020 19:00:00 9,8 8,0 - - 9 5 - - NW 1033,7 40 0,0
22.01.2020 18:00:00 10,0 8,1 - - 5 3 - - NW 1033,9 40 0,0
22.01.2020 17:00:00 9,5 7,6 - - 11 6 - - NW 1033,9 24 0,0
22.01.2020 16:00:00 10,1 7,5 - - 4 2 - - S 1033,9 30 0,0
22.01.2020 15:00:00 10,3 7,3 - - 8 4 - - WNW 1034,2 30 0,0
22.01.2020 14:00:00 10,9 7,7 - - 5 3 - - NW 1034,5 30 0,0
22.01.2020 13:00:00 10,1 7,7 - - 8 4 - - WNW 1034,7 27 0,0
22.01.2020 12:00:00 10,0 7,3 - - 5 3 - - WSW 1035,2 30 0,0
22.01.2020 11:00:00 9,5 6,4 - - 4 2 - - W 1035,5 40 0,0
22.01.2020 10:00:00 8,2 5,7 - - 9 5 - - NW 1035,3 35 0,0
22.01.2020 09:00:00 7,8 6,3 4,7 5,7 5 3 - - WNW 1035,2 50 0,0
22.01.2020 08:00:00 7,7 6,4 - - 5 3 - - W 1034,7 50 0,0
22.01.2020 07:00:00 7,3 6,0 - - 9 5 - - SSW 1034,3 50 0,0
22.01.2020 06:00:00 7,6 6,5 - - 11 6 - - SSW 1034,3 50 0,0
22.01.2020 05:00:00 7,5 6,7 - - 13 7 - - S 1034,3 50 0,0
22.01.2020 04:00:00 9,1 7,6 - - 9 5 - - WSW 1034,1 50 0,0
22.01.2020 03:00:00 7,4 6,7 - - 9 5 - - W 1034,5 50 0,0
22.01.2020 02:00:00 7,9 7,3 - - 13 7 - - WNW 1034,6 45 0,2
22.01.2020 01:00:00 8,0 7,1 - - 16 9 - - WNW 1034,8 30 0,0
22.01.2020 00:00:00 7,5 6,3 - - 8 4 - - WNW 1034,9 50 0,0
21.01.2020 23:00:00 8,0 6,7 - - 2 1 - - W 1035,1 50 0,0
21.01.2020 22:00:00 8,1 6,6 - - 4 2 - - W 1035,0 50 0,0
21.01.2020 21:00:00 8,5 6,9 - - 9 5 - - W 1035,0 50 0,0
21.01.2020 20:00:00 8,3 6,1 - - 8 4 - - W 1035,3 40 0,0
21.01.2020 19:00:00 8,7 6,6 - - 9 5 - - WNW 1035,4 50 0,0
21.01.2020 18:00:00 9,1 6,5 - - 13 7 - - WNW 1034,8 50 0,0
21.01.2020 17:00:00 9,3 6,8 - - 11 6 - - W 1034,6 50 0,0
21.01.2020 16:00:00 9,7 6,7 - - 9 5 - - W 1034,2 45 0,0
21.01.2020 15:00:00 9,8 7,5 - - 9 5 - - SSW 1034,3 40 0,0
21.01.2020 14:00:00 9,9 7,2 - - 13 7 - - WSW 1035,2 50 0,0
21.01.2020 13:00:00 9,5 7,1 - - 13 7 - - SW 1035,4 50 0,0
21.01.2020 12:00:00 9,1 6,7 - - 9 5 - - WSW 1035,6 35 0,0
21.01.2020 11:00:00 8,8 6,3 - - 8 4 - - W 1036,4 35 0,0
21.01.2020 10:00:00 6,7 5,3 - - 13 7 - - WNW 1036,4 45 0,0
21.01.2020 09:00:00 6,3 5,1 4,4 5,7 13 7 - - WNW 1035,9 45 0,0
21.01.2020 08:00:00 6,7 5,4 - - 15 8 - - W 1035,5 50 0,0
21.01.2020 07:00:00 7,2 5,3 - - 15 8 - - W 1036,0 45 0,0
21.01.2020 06:00:00 7,7 5,5 - - 13 7 - - WSW 1035,7 45 0,0
21.01.2020 05:00:00 7,5 5,5 - - 15 8 - - WSW 1035,7 50 0,0
21.01.2020 04:00:00 6,7 4,8 - - 11 6 - - WSW 1035,4 45 0,0
21.01.2020 03:00:00 7,2 4,8 - - 34 18 48 26 WSW 1034,9 50 0,0
21.01.2020 02:00:00 7,8 5,0 - - 35 19 46 25 W 1035,0 50 0,0
21.01.2020 01:00:00 6,9 4,4 - - 24 13 - - WSW 1035,5 45 0,0
21.01.2020 00:00:00 6,0 3,9 - - 29 16 - - SW 1036,1 45 0,0
20.01.2020 23:00:00 5,8 3,9 - - 24 13 - - WSW 1036,4 50 0,0
20.01.2020 22:00:00 5,7 3,7 - - 34 18 46 25 WSW 1036,0 40 0,0
20.01.2020 21:00:00 5,1 3,7 - - 34 18 - - WSW 1036,0 40 0,0
20.01.2020 20:00:00 5,0 3,7 - - 34 18 - - SW 1036,3 29 0,0
20.01.2020 19:00:00 4,9 3,7 - - 34 18 - - SW 1036,6 30 0,0
20.01.2020 18:00:00 5,6 3,9 - - 22 12 - - SW 1036,8 40 0,0
20.01.2020 17:00:00 5,7 4,2 - - 26 14 - - SSW 1037,2 27 0,0
20.01.2020 16:00:00 6,7 4,9 - - 35 19 46 25 SW 1037,1 30 0,0
20.01.2020 15:00:00 7,8 4,9 - - 39 21 46 25 SW 1036,8 29 0,0
20.01.2020 14:00:00 8,2 4,9 - - 22 12 - - WSW 1037,2 40 0,0
20.01.2020 13:00:00 7,8 4,8 - - 26 14 65 35 SW 1038,3 28 0,0
20.01.2020 12:00:00 6,9 4,3 - - 48 26 70 38 WSW 1037,6 45 0,0
20.01.2020 11:00:00 6,7 3,8 - - 44 24 61 33 WSW 1038,0 28 0,0
20.01.2020 10:00:00 5,3 3,2 - - 28 15 50 27 W 1038,8 27 0,0
20.01.2020 09:00:00 4,4 3,3 4,2 5,7 35 19 50 27 SW 1038,8 18 0,0
20.01.2020 08:00:00 4,2 2,4 - - 21 11 50 27 SSW 1038,7 30 0,0
20.01.2020 07:00:00 5,4 3,0 - - 24 13 48 26 W 1038,2 35 0,0
20.01.2020 06:00:00 5,6 3,1 - - 31 17 - - WSW 1038,2 45 0,0
20.01.2020 05:00:00 6,3 3,0 - - 29 16 - - W 1038,0 45 0,0
20.01.2020 04:00:00 5,0 2,5 - - 15 8 - - WNW 1038,2 45 0,0
20.01.2020 03:00:00 5,4 2,5 - - 24 13 - - W 1038,3 45 0,0
20.01.2020 02:00:00 4,6 2,0 - - 5 3 - - W 1038,5 50 0,0
20.01.2020 01:00:00 5,4 2,5 - - 29 16 - - WSW 1038,5 35 0,0
20.01.2020 00:00:00 4,5 2,0 - - 11 6 - - SW 1038,7 30 0,0
19.01.2020 23:00:00 4,8 1,9 - - 24 13 65 35 SW 1038,1 35 0,0
19.01.2020 22:00:00 4,9 1,5 - - 50 27 63 34 WSW 1037,5 35 0,0
19.01.2020 21:00:00 3,8 0,9 - - 39 21 46 25 SSW 1037,9 40 0,0
19.01.2020 20:00:00 3,9 0,4 - - 31 17 48 26 SW 1038,4 45 0,0
19.01.2020 19:00:00 3,7 0,5 - - 34 18 - - SW 1038,8 35 0,0
19.01.2020 18:00:00 4,1 0,5 - - 42 23 54 29 WSW 1038,7 50 0,0
19.01.2020 17:00:00 4,0 0,5 - - 28 15 55 30 SW 1039,2 45 0,0
19.01.2020 16:00:00 4,0 0,9 - - 39 21 52 28 WSW 1038,8 40 0,0
19.01.2020 15:00:00 3,9 1,1 - - 26 14 54 29 W 1038,8 35 0,0
19.01.2020 14:00:00 4,0 1,7 - - 39 21 55 30 SW 1037,9 30 0,0
19.01.2020 13:00:00 4,0 1,2 - - 29 16 - - WSW 1038,8 40 0,0
19.01.2020 12:00:00 5,1 1,4 - - 21 11 - - WSW 1039,8 50 0,0
19.01.2020 11:00:00 3,5 -0,2 - - 16 9 - - WSW 1040,4 45 0,0
19.01.2020 10:00:00 0,0 -2,1 - - 9 5 - - NW 1040,9 40 0,0
19.01.2020 09:00:00 0,3 -2,1 4,5 5,9 15 8 - - NW 1040,4 40 0,0
19.01.2020 08:00:00 0,6 -3,2 - - 9 5 - - NW 1039,9 45 0,0
19.01.2020 07:00:00 0,7 -3,0 - - 11 6 - - NW 1039,6 30 0,0
19.01.2020 06:00:00 0,3 -3,0 - - 11 6 - - NW 1038,8 35 0,0
19.01.2020 05:00:00 0,5 -3,1 - - 11 6 - - NW 1038,0 30 0,0
19.01.2020 04:00:00 1,0 -3,5 - - 11 6 - - NW 1037,2 40 0,0
19.01.2020 03:00:00 1,4 -3,1 - - 8 4 - - NW 1036,7 40 0,0

tt = Température de l'air
td = dewpoint
tt -20cm = Température de l'air -20cm
tt -100cm = Température de l'air -100cm
ff = Vitesse du vent
fx = gusts
dd = Direction du vent
ppp = reduced air pressure
vv = visibility
rr = Quantités de précipitations

stations d'obs. à proximité